Pittsburgh Allegheny Co., PA

3:48 AM EDT on June 25, 2017 (GMT -0400)
Allegheny County

Weather History for KAGC - March, 2013

Change the Weather History Date:

Friday, March 15, 2013

  Actual Average Record
Temperature  
Mean Temperature 38 °F -  
Max Temperature 48 °F 52 °F 80 °F (1990)
Min Temperature 28 °F 28 °F 4 °F (1993)
Degree Days  
Heating Degree Days 27    
Moisture  
Dew Point 25 °F    
Average Humidity 60    
Maximum Humidity 86    
Minimum Humidity 48    
Precipitation  
Precipitation 0.01 in - - ()
Sea Level Pressure  
Sea Level Pressure 29.96 in    
Wind  
Wind Speed 9 mph (WSW)    
Max Wind Speed 21 mph    
Max Gust Speed 26 mph    
Visibility 10 miles    
Events Rain    
Averages and records for this station are not official NWS values.
T = Trace of Precipitation, MM = Missing Value Source: NWS Daily Summary

Daily Weather History Graph

Daily Weather History Graph

Search for Another Location

Airport or City:

Trip Planner

Search our weather history database for the weather conditions in past years. The results will help you decide how hot, cold, wet, or windy it might be!

Date:

Astronomy

Mar. 15, 2013 Rise Set
Actual Time 7:30 AM EDT 7:26 PM EDT
Civil Twilight 7:03 AM EDT 7:53 PM EDT
Nautical Twilight 6:32 AM EDT 8:25 PM EDT
Astronomical Twilight 6:00 AM EDT 8:57 PM EDT
Moon 9:19 AM EDT (3/15) 11:40 PM EDT (3/15)
Length of Visible Light 12h 50m
Length of Day
11h 55m
Waxing Crescent, 15% of the Moon is Illuminated
Mar 15
Waxing Crescent
Mar 19
First Quarter
Mar 27
Full
Apr 3
Last Quarter
Apr 10
New

Hourly Weather History & Observations

Time (EDT) Temp. Windchill Dew Point Humidity Pressure Visibility Wind Dir Wind Speed Gust Speed Precip Events Conditions
12:53 AM 28.9 °F 21.9 °F 18.0 °F 64% 30.14 in 10.0 mi SW 6.9 mph - N/A   Clear
1:53 AM 28.0 °F 20.0 °F 19.0 °F 69% 30.13 in 10.0 mi SSW 8.1 mph - N/A   Clear
2:53 AM 28.0 °F 20.0 °F 18.0 °F 66% 30.12 in 10.0 mi SSW 8.1 mph - N/A   Clear
3:53 AM 28.0 °F 20.8 °F 18.0 °F 66% 30.10 in 10.0 mi SW 6.9 mph - N/A   Clear
4:53 AM 28.0 °F 19.3 °F 18.0 °F 66% 30.07 in 10.0 mi SSW 9.2 mph - N/A   Clear
5:53 AM 28.0 °F 20.0 °F 18.0 °F 66% 30.06 in 10.0 mi SSW 8.1 mph - N/A   Clear
6:53 AM 28.0 °F 18.6 °F 18.0 °F 66% 30.06 in 10.0 mi SSW 10.4 mph - N/A   Scattered Clouds
7:53 AM 30.0 °F 20.5 °F 19.0 °F 64% 30.04 in 10.0 mi SSW 11.5 mph - N/A   Overcast
8:53 AM 30.9 °F 22.2 °F 19.0 °F 61% 30.02 in 10.0 mi SSW 10.4 mph - N/A   Overcast
9:23 AM 32.0 °F 22.5 °F 19.4 °F 60% 29.97 in 10.0 mi SSW 12.7 mph - N/A   Overcast
9:33 AM 32.0 °F 23.6 °F 19.4 °F 60% 29.97 in 10.0 mi SSW 10.4 mph - N/A   Overcast
9:53 AM 34.0 °F 28.0 °F 19.9 °F 56% 30.01 in 10.0 mi SW 6.9 mph - N/A   Mostly Cloudy
10:53 AM 37.0 °F 28.9 °F 24.1 °F 59% 29.99 in 10.0 mi SW 12.7 mph - N/A   Mostly Cloudy
11:53 AM 39.0 °F 31.4 °F 26.1 °F 60% 29.97 in 10.0 mi SW 12.7 mph - N/A   Overcast
12:43 PM 41.0 °F 33.5 °F 26.6 °F 57% 29.90 in 10.0 mi WSW 13.8 mph - N/A   Overcast
12:53 PM 41.0 °F 34.3 °F 27.0 °F 57% 29.94 in 10.0 mi West 11.5 mph 19.6 mph N/A   Overcast
1:53 PM 45.0 °F 36.9 °F 27.0 °F 49% 29.91 in 10.0 mi WSW 20.7 mph 26.5 mph N/A   Partly Cloudy
2:53 PM 46.9 °F - 28.0 °F 48% 29.87 in 10.0 mi West 16.1 mph 24.2 mph N/A   Scattered Clouds
3:53 PM 48.0 °F - 28.9 °F 48% 29.86 in 10.0 mi West 11.5 mph 19.6 mph N/A   Mostly Cloudy
4:53 PM 48.0 °F - 28.9 °F 48% 29.85 in 10.0 mi West 13.8 mph 21.9 mph N/A   Mostly Cloudy
5:53 PM 48.0 °F - 30.0 °F 50% 29.83 in 10.0 mi West 11.5 mph 21.9 mph N/A   Scattered Clouds
6:53 PM 46.9 °F - 30.9 °F 54% 29.85 in 10.0 mi West 10.4 mph - N/A   Overcast
7:53 PM 46.9 °F - 30.9 °F 54% 29.86 in 10.0 mi WNW 4.6 mph - N/A   Overcast
8:53 PM 46.9 °F - 30.9 °F 54% 29.86 in 10.0 mi WNW 5.8 mph - N/A   Overcast
9:53 PM 45.0 °F 42.6 °F 32.0 °F 60% 29.87 in 10.0 mi NNW 4.6 mph - N/A   Overcast
10:53 PM 42.1 °F 38.4 °F 34.0 °F 73% 29.87 in 8.0 mi North 5.8 mph - 0.00 in   Overcast
11:53 PM 39.9 °F 36.7 °F 36.0 °F 86% 29.87 in 6.0 mi NNW 4.6 mph - 0.01 in Rain Light Rain